TimeEST,TemperatureF,Dew PointF,Humidity,Sea Level PressureIn,VisibilityMPH,Wind Direction,Wind SpeedMPH,Gust SpeedMPH,PrecipitationIn,Events,Conditions,WindDirDegrees,DateUTC
12:15 AM,48.2,46.4,93,30.24,6.0,Calm,Calm,-,0.00,,Clear,0,2013-01-20 05:15:00
12:35 AM,46.4,44.6,93,30.23,5.0,Calm,Calm,-,0.00,,Clear,0,2013-01-20 05:35:00
12:55 AM,46.4,44.6,93,30.22,5.0,Calm,Calm,-,0.00,,Clear,0,2013-01-20 05:55:00
1:15 AM,46.4,44.6,93,30.22,5.0,WNW,4.6,-,0.00,,Clear,300,2013-01-20 06:15:00
1:35 AM,46.4,44.6,93,30.22,6.0,Calm,Calm,-,0.00,,Clear,0,2013-01-20 06:35:00
2:15 AM,44.6,42.8,93,30.22,5.0,Calm,Calm,-,0.00,,Clear,0,2013-01-20 07:15:00
2:35 AM,44.6,42.8,93,30.21,8.0,Calm,Calm,-,0.00,,Clear,0,2013-01-20 07:35:00
2:55 AM,44.6,42.8,93,30.20,8.0,Calm,Calm,-,0.00,,Clear,0,2013-01-20 07:55:00
3:15 AM,46.4,42.8,87,30.20,8.0,Calm,Calm,-,0.00,,Clear,0,2013-01-20 08:15:00
3:35 AM,46.4,44.6,93,30.20,7.0,Calm,Calm,-,0.00,,Clear,0,2013-01-20 08:35:00
3:55 AM,44.6,42.8,93,30.19,6.0,West,4.6,-,0.00,,Clear,280,2013-01-20 08:55:00
4:15 AM,44.6,42.8,93,30.19,8.0,West,5.8,-,0.00,,Clear,270,2013-01-20 09:15:00
4:35 AM,46.4,44.6,93,30.19,8.0,West,5.8,-,0.00,,Clear,270,2013-01-20 09:35:00
4:55 AM,46.4,44.6,93,30.18,7.0,West,5.8,-,0.00,,Clear,280,2013-01-20 09:55:00
5:15 AM,46.4,46.4,100,30.18,7.0,West,4.6,-,0.00,,Clear,280,2013-01-20 10:15:00
5:35 AM,46.4,44.6,93,30.19,7.0,West,4.6,-,0.00,,Clear,280,2013-01-20 10:35:00
5:55 AM,48.2,46.4,93,30.19,10.0,Calm,Calm,-,0.00,,Clear,0,2013-01-20 10:55:00
6:15 AM,46.4,44.6,93,30.19,10.0,Calm,Calm,-,0.00,,Clear,0,2013-01-20 11:15:00
6:35 AM,44.6,42.8,93,30.19,5.0,Calm,Calm,-,0.00,,Clear,0,2013-01-20 11:35:00
7:15 AM,44.6,42.8,93,30.20,5.0,Calm,Calm,-,0.00,,Clear,0,2013-01-20 12:15:00
7:35 AM,42.8,41.0,93,30.20,4.0,Calm,Calm,-,0.00,,Clear,0,2013-01-20 12:35:00
7:55 AM,44.6,42.8,93,30.20,4.0,West,4.6,-,0.00,,Clear,270,2013-01-20 12:55:00
8:15 AM,48.2,44.6,87,30.20,9.0,West,3.5,-,0.00,,Clear,270,2013-01-20 13:15:00
8:35 AM,51.8,48.2,88,30.20,9.0,Calm,Calm,-,0.00,,Clear,0,2013-01-20 13:35:00
8:55 AM,53.6,48.2,82,30.21,10.0,West,6.9,-,0.00,,Clear,280,2013-01-20 13:55:00
9:15 AM,53.6,48.2,82,30.21,10.0,West,6.9,-,0.00,,Clear,270,2013-01-20 14:15:00
9:35 AM,57.2,48.2,72,30.21,10.0,WNW,9.2,-,0.00,,Partly Cloudy,290,2013-01-20 14:35:00
9:55 AM,60.8,46.4,59,30.21,10.0,WNW,8.1,-,0.00,,Partly Cloudy,290,2013-01-20 14:55:00
10:15 AM,60.8,46.4,59,30.21,10.0,West,12.7,-,0.00,,Clear,280,2013-01-20 15:15:00
10:35 AM,59.0,44.6,59,30.20,10.0,West,10.4,-,0.00,,Clear,270,2013-01-20 15:35:00
10:55 AM,60.8,44.6,55,30.19,10.0,West,10.4,16.1,0.00,,Clear,280,2013-01-20 15:55:00
11:15 AM,62.6,42.8,48,30.18,10.0,WNW,11.5,-,0.00,,Clear,290,2013-01-20 16:15:00
11:35 AM,62.6,42.8,48,30.17,10.0,West,11.5,-,0.00,,Clear,270,2013-01-20 16:35:00
11:55 AM,64.4,42.8,45,30.15,10.0,West,17.3,21.9,0.00,,Clear,280,2013-01-20 16:55:00
12:15 PM,64.4,42.8,45,30.14,10.0,West,13.8,-,0.00,,Clear,260,2013-01-20 17:15:00
12:35 PM,64.4,41.0,42,30.12,10.0,West,13.8,18.4,0.00,,Clear,270,2013-01-20 17:35:00
12:55 PM,66.2,41.0,40,30.11,10.0,West,13.8,-,0.00,,Clear,280,2013-01-20 17:55:00
1:15 PM,68.0,39.2,35,30.10,10.0,NW,11.5,16.1,0.00,,Clear,310,2013-01-20 18:15:00
1:35 PM,66.2,35.6,32,30.08,10.0,West,13.8,18.4,0.00,,Clear,260,2013-01-20 18:35:00
1:55 PM,69.8,35.6,28,30.07,10.0,West,13.8,-,0.00,,Clear,270,2013-01-20 18:55:00
2:15 PM,69.8,35.6,28,30.07,10.0,WNW,5.8,-,0.00,,Clear,290,2013-01-20 19:15:00
2:35 PM,69.8,35.6,28,30.07,10.0,West,5.8,-,0.00,,Clear,280,2013-01-20 19:35:00
2:55 PM,69.8,33.8,27,30.06,10.0,West,8.1,-,0.00,,Clear,260,2013-01-20 19:55:00
3:15 PM,69.8,32.0,25,30.06,10.0,West,10.4,16.1,0.00,,Clear,260,2013-01-20 20:15:00
3:35 PM,69.8,30.2,23,30.06,10.0,WNW,10.4,-,0.00,,Clear,290,2013-01-20 20:35:00
3:55 PM,69.8,30.2,23,30.06,10.0,West,8.1,-,0.00,,Clear,270,2013-01-20 20:55:00
4:15 PM,69.8,32.0,25,30.06,10.0,West,5.8,-,0.00,,Clear,260,2013-01-20 21:15:00
4:35 PM,68.0,30.2,24,30.06,10.0,WSW,8.1,-,0.00,,Clear,250,2013-01-20 21:35:00
4:55 PM,66.2,30.2,26,30.07,10.0,WSW,5.8,-,0.00,,Clear,240,2013-01-20 21:55:00
5:15 PM,66.2,32.0,28,30.07,10.0,Calm,Calm,-,0.00,,Clear,0,2013-01-20 22:15:00
5:35 PM,64.4,32.0,30,30.07,10.0,WSW,3.5,-,0.00,,Light Drizzle,250,2013-01-20 22:35:00
5:55 PM,60.8,33.8,36,30.08,10.0,Calm,Calm,-,0.00,,Clear,0,2013-01-20 22:55:00
6:15 PM,57.2,35.6,44,30.08,10.0,Calm,Calm,-,0.00,,Clear,0,2013-01-20 23:15:00
6:35 PM,57.2,35.6,44,30.08,10.0,Calm,Calm,-,0.00,,Clear,0,2013-01-20 23:35:00
6:55 PM,53.6,37.4,54,30.09,10.0,Calm,Calm,-,0.00,,Clear,0,2013-01-20 23:55:00
7:15 PM,51.8,39.2,62,30.09,10.0,Calm,Calm,-,0.00,,Clear,0,2013-01-21 00:15:00
7:35 PM,50.0,37.4,62,30.09,10.0,Calm,Calm,-,0.00,,Clear,0,2013-01-21 00:35:00
7:55 PM,51.8,37.4,58,30.09,10.0,Calm,Calm,-,0.00,,Clear,0,2013-01-21 00:55:00
8:15 PM,51.8,37.4,58,30.09,10.0,Calm,Calm,-,0.00,,Clear,0,2013-01-21 01:15:00
8:35 PM,48.2,37.4,66,30.10,10.0,Calm,Calm,-,0.00,,Clear,0,2013-01-21 01:35:00
8:55 PM,46.4,39.2,76,30.10,10.0,Calm,Calm,-,0.00,,Clear,0,2013-01-21 01:55:00
9:15 PM,46.4,37.4,71,30.10,10.0,Calm,Calm,-,0.00,,Clear,0,2013-01-21 02:15:00
9:35 PM,46.4,37.4,71,30.11,10.0,Calm,Calm,-,0.00,,Clear,0,2013-01-21 02:35:00
9:55 PM,48.2,37.4,66,30.11,10.0,Calm,Calm,-,0.00,,Clear,0,2013-01-21 02:55:00
10:15 PM,44.6,37.4,76,30.11,10.0,West,4.6,-,0.00,,Clear,270,2013-01-21 03:15:00
10:55 PM,44.6,35.6,71,30.12,10.0,Calm,Calm,-,0.00,,Clear,0,2013-01-21 03:55:00
11:15 PM,44.6,35.6,71,30.12,10.0,Calm,Calm,-,0.00,,Clear,0,2013-01-21 04:15:00
11:35 PM,44.6,35.6,71,30.11,10.0,Calm,Calm,-,0.00,,Clear,0,2013-01-21 04:35:00
11:55 PM,46.4,35.6,66,30.11,10.0,Calm,Calm,-,0.00,,Clear,0,2013-01-21 04:55:00